SCP
7 6 6 6 4 3 3 3 3 3 3 2 2 2 2 2 2 2 2 2 2 2 2 2 2 2 1 1 1 2 2 2 2 2 2 2 1 1 1 1 1 1 1
6 6 6 6 5 3 3 3 3 3 3 2 2 2 2 2 2 2 2 2 2 2 2 2 2 2 2 1 1 2 2 2 2 2 2 2 2 1 1 1 1 1 1
5 5 6 6 5 4 4 4 3 3 3 3 2 2 2 2 2 2 2 2 2 2 2 2 2 2 2 1 1 2 2 2 2 2 2 2 2 1 1 1 1 1 1
4 4 4 4 4 4 5 4 4 4 4 3 3 2 3 3 2 2 2 2 2 2 2 2 2 2 2 2 2 2 2 2 2 2 2 2 2 1 1 1 1 1 1
4 4 4 4 4 5 5 5 4 4 4 3 3 2 3 3 3 2 2 2 2 2 2 2 2 2 2 2 2 2 2 2 2 2 2 2 2 2 1 1 1 1 1
4 4 4 4 4 5 5 5 5 5 4 4 3 3 3 3 3 3 3 3 3 2 2 2 2 2 2 2 2 2 2 2 2 2 2 2 2 2 1 1 1 1 1
3 3 3 3 4 4 5 5 5 5 5 5 5 4 4 4 4 3 3 3 3 2 2 2 2 3 2 2 2 2 2 2 2 2 2 2 2 2 2 1 1 1 1
2 2 3 3 3 3 4 5 5 5 5 6 6 6 5 4 4 3 3 3 3 2 2 2 2 2 2 2 2 2 2 2 2 2 3 2 2 2 2 1 1 1 1
3 3 2 3 3 3 3 4 4 4 5 5 6 6 5 4 3 3 3 3 2 2 2 2 2 2 2 2 3 3 2 2 3 3 3 3 2 2 2 1 1 1 1
3 3 3 3 3 3 3 3 4 4 4 4 5 4 3 3 3 3 3 2 2 2 1 1 2 2 3 3 3 3 2 2 2 3 3 3 3 2 2 2 2 2 2
3 4 4 4 3 3 3 3 3 3 3 3 3 3 2 2 3 3 3 2 2 1 1 1 2 3 3 3 4 3 2 2 2 3 3 3 3 3 3 2 2 2 2
3 4 5 5 4 3 2 2 2 3 3 3 2 2 1 2 2 3 3 3 2 2 2 2 2 3 3 4 3 3 2 2 2 2 2 3 4 4 3 3 2 2 2
2 3 4 4 3 3 2 2 2 2 2 2 2 2 1 1 2 3 3 3 3 3 3 2 2 3 3 4 3 2 2 2 1 1 2 2 3 4 4 3 3 2 2
2 2 2 2 2 2 1 1 2 2 2 2 1 1 1 1 2 2 2 2 3 3 3 2 2 2 3 3 3 2 2 1 1 1 1 1 2 3 3 3 2 2 2
1 1 1 1 1 1 1 1 1 2 2 1 1 1 1 1 1 1 2 2 2 2 2 2 2 2 3 3 2 2 2 1 1 0 1 1 1 1 2 2 2 2 2
1 1 1 1 1 1 1 1 1 1 1 1 1 1 1 1 1 2 2 2 2 2 1 1 2 3 3 2 2 2 2 1 1 0 0 0 0 0 1 1 1 1 1
1 1 1 1 1 1 1 1 1 1 1 1 1 1 1 1 1 2 2 2 2 2 1 1 2 3 3 2 2 2 2 2 1 1 0 0 0 0 0 0 0 0 0
1 1 1 1 1 1 1 1 1 1 1 1 1 1 1 1 1 1 1 2 2 2 1 1 2 2 2 2 2 2 2 2 2 1 0 0 0 0 0 0 0 0 0
1 1 1 1 1 1 1 1 1 1 1 0 0 1 1 1 1 1 1 1 2 2 2 2 2 2 1 1 1 1 1 1 1 1 0 0 0 0 0 0 0 0 0
1 1 1 1 1 1 1 0 0 1 1 0 0 0 1 1 1 1 1 1 1 2 2 2 2 1 1 1 1 1 1 1 1 1 1 0 0 0 0 0 0 0 0
1 1 1 1 1 1 0 0 0 1 1 1 0 0 0 0 0 0 1 1 1 1 1 2 2 1 1 0 0 1 1 1 1 1 1 1 0 0 0 0 0 0 0
1 1 1 1 1 1 1 0 0 1 1 1 1 0 0 0 0 0 0 0 0 0 1 1 2 1 1 0 0 0 1 1 1 1 1 1 1 1 1 0 0 0 0
1 1 1 1 2 1 1 0 0 1 1 2 1 1 0 0 0 0 0 0 0 0 0 0 1 1 1 1 0 0 0 0 1 1 1 1 0 1 1 0 0 0 0
1 1 1 2 2 2 1 0 0 0 1 2 2 1 1 0 0 0 0 0 0 0 0 0 0 1 1 1 0 0 0 0 1 1 1 1 1 0 0 0 0 0 0
1 1 1 2 2 2 1 0 0 1 1 2 2 1 1 0 0 0 0 0 0 0 0 0 0 0 0 0 0 0 0 0 1 1 1 1 1 1 0 0 0 0 0
1 1 1 1 2 2 1 0 0 0 1 1 1 1 0 0 0 0 0 0 0 0 0 0 0 0 0 0 0 0 0 0 0 0 1 1 1 1 1 0 0 0 0
Wind_Speed
3 3 3 3 4 3 4 5 5 5 6 7 8 8 8 8 8 8 4 7 10 11 13 13 13 13 13 13 13 13 13 13 14 15 15 15 15 15 15 15 15 15 15
3 3 3 3 4 4 4 4 5 5 5 6 8 8 8 8 7 8 8 7 11 11 11 12 12 12 13 13 12 13 13 14 13 14 15 16 16 16 16 16 16 16 15
3 3 3 4 3 4 4 4 5 5 5 6 7 8 7 8 7 8 8 7 7 10 11 10 10 11 12 13 13 13 13 13 14 14 15 16 16 16 17 17 17 16 16
4 4 4 4 4 4 4 4 5 4 5 6 6 6 6 6 7 7 7 7 6 6 9 11 10 11 12 12 12 13 12 13 13 14 15 16 17 16 16 16 17 17 17
4 4 4 4 4 4 4 4 3 4 5 5 6 5 6 5 6 7 7 8 7 7 7 7 10 11 12 12 12 12 13 13 13 14 15 16 16 16 16 16 17 17 17
3 4 4 4 5 3 4 4 4 4 5 5 6 5 5 6 5 6 7 7 7 8 9 8 7 8 12 12 12 12 13 13 13 13 14 14 14 14 15 15 16 17 18
3 4 4 3 4 4 4 4 4 5 4 4 4 5 5 7 6 5 6 6 7 8 8 8 7 6 6 11 12 11 13 13 13 13 14 14 14 14 15 15 15 17 18
3 4 4 4 4 4 4 4 4 4 3 2 3 4 4 4 5 6 5 6 6 6 8 9 8 7 7 6 7 12 12 12 13 13 13 12 13 14 15 15 16 16 17
3 4 4 5 4 5 3 4 5 5 4 4 3 4 4 4 3 3 5 5 5 5 6 6 8 8 8 7 7 9 11 10 12 13 13 12 12 13 14 15 16 16 16
3 4 5 5 5 4 4 4 3 4 5 4 4 4 4 4 4 4 4 4 5 6 6 6 7 7 8 7 6 7 8 9 10 11 12 12 12 13 14 15 15 16 17
3 4 4 4 4 4 4 4 3 4 4 4 4 4 5 4 6 5 6 5 5 5 5 6 6 6 6 7 6 7 7 8 9 10 11 11 11 12 13 14 15 16 18
3 3 4 3 4 3 3 3 3 4 3 4 4 4 4 4 4 5 6 6 5 5 5 5 5 5 5 6 7 4 5 8 8 9 10 10 11 12 12 13 15 15 16
2 2 3 3 3 3 3 3 3 4 4 4 4 4 5 5 4 4 6 6 6 5 5 5 5 5 5 5 4 4 6 8 8 9 9 10 10 11 12 12 14 15 15
3 3 3 3 3 4 4 3 3 4 3 4 4 4 4 4 4 5 5 6 6 6 5 5 4 5 4 4 4 6 7 8 9 10 10 10 11 11 11 11 12 12 12
3 4 4 4 4 4 4 4 3 3 3 3 3 4 4 4 4 5 5 6 6 7 6 5 5 4 4 4 3 6 7 7 9 10 11 11 12 12 12 11 11 11 11
4 4 4 5 5 5 4 4 4 2 3 3 3 3 4 4 4 5 5 5 6 7 7 5 5 5 4 5 4 7 7 7 10 11 10 11 12 12 12 12 11 11 11
3 4 5 5 5 4 4 3 3 3 3 3 4 4 4 5 5 5 5 5 5 5 6 6 6 5 5 6 5 6 7 7 7 10 10 10 11 11 12 11 11 11 11
4 4 4 4 4 4 3 4 3 3 4 4 4 4 5 4 5 5 5 5 4 5 6 7 6 5 6 6 6 6 6 6 6 7 9 10 11 11 11 11 10 10 10
3 4 4 4 4 3 3 3 4 4 4 4 4 5 5 5 6 5 5 5 4 4 5 5 6 5 5 5 5 5 6 5 6 5 8 10 10 10 10 10 10 11 11
3 3 3 3 3 3 3 3 3 3 4 4 4 5 5 5 5 6 5 6 5 5 5 5 5 5 4 4 4 4 4 3 4 4 3 4 6 9 10 11 11 11 10
4 3 3 3 3 3 2 3 3 3 3 4 4 4 4 4 5 5 6 6 6 5 5 5 4 4 4 4 4 4 4 4 3 3 3 3 3 4 6 9 11 10 10
3 3 3 3 3 2 2 2 4 4 3 3 3 3 4 3 3 4 5 6 6 6 6 5 4 4 5 5 4 4 4 4 4 3 3 4 3 3 3 3 4 7 9
3 3 3 3 2 1 1 2 4 4 4 3 3 3 3 3 3 4 3 4 4 5 6 6 6 6 5 5 5 5 4 4 4 4 4 4 4 3 3 2 4 5 7
3 3 3 3 3 2 0 2 4 4 3 3 3 3 3 4 4 5 5 4 4 3 3 4 4 6 5 4 4 5 5 4 4 4 4 5 4 4 4 2 4 6 6
3 3 3 3 3 1 0 1 4 4 2 3 3 3 3 3 3 4 4 4 4 3 2 2 3 5 5 5 4 4 3 3 4 3 3 4 4 4 4 4 3 7 8
3 4 3 2 3 2 1 1 4 3 2 2 2 1 1 2 3 3 4 4 4 4 4 3 3 4 4 3 4 4 3 3 3 3 2 3 4 4 4 4 3 4 6
Wind_Direction
245 240 243 248 250 242 236 246 250 245 245 243 244 243 247 247 250 255 245 202 220 239 246 250 250 246 244 240 237 235 233 233 229 222 217 215 217 219 219 219 219 219 217
249 249 243 239 246 248 252 252 257 253 250 251 249 244 247 250 249 255 261 233 211 224 240 248 250 248 245 242 239 236 235 232 230 225 220 216 216 217 219 221 221 221 220
243 244 251 246 248 250 249 250 254 252 249 246 244 242 243 247 250 251 256 262 244 216 222 235 246 248 245 243 240 238 235 234 230 227 224 221 218 217 220 221 221 221 221
239 237 243 248 249 250 247 249 253 255 253 252 247 248 246 242 245 247 250 249 257 256 221 215 234 244 244 241 240 238 233 232 231 231 230 227 222 219 220 221 221 221 222
240 245 248 256 250 251 255 258 252 262 261 258 254 245 247 242 242 243 245 249 250 255 258 218 219 233 239 238 237 238 235 231 230 231 232 230 227 223 222 222 223 222 222
247 255 251 255 257 251 254 260 261 256 266 267 265 262 253 249 245 242 244 242 244 249 250 256 240 227 226 231 231 234 237 234 233 232 233 232 228 226 225 224 226 226 225
265 256 264 253 255 252 258 260 258 253 256 266 266 263 252 241 243 242 244 249 244 246 247 248 251 251 231 218 220 227 237 239 239 236 236 235 231 228 228 227 227 229 227
275 260 264 263 257 259 253 259 258 264 259 248 268 270 262 241 231 235 244 246 255 253 248 242 246 243 248 243 211 214 228 238 241 239 236 235 234 233 232 231 231 232 231
269 274 265 266 268 262 262 261 255 252 258 244 244 266 274 275 291 234 246 257 262 266 262 257 247 245 241 243 239 213 218 231 238 239 237 234 231 233 234 233 233 231 231
272 261 264 261 263 267 267 263 261 259 258 257 240 247 263 286 281 282 256 257 262 265 269 268 260 248 243 244 236 231 214 225 235 240 240 237 232 233 235 235 235 235 234
276 272 265 265 259 261 263 268 267 259 257 263 262 258 255 250 252 267 281 275 263 264 262 261 261 260 254 248 244 230 204 218 230 238 241 241 239 236 236 235 237 237 237
280 278 270 269 262 263 256 260 266 254 266 269 270 265 262 264 261 265 271 275 276 276 272 265 256 255 255 255 251 213 210 217 224 233 239 240 240 239 237 238 239 238 237
275 279 281 273 273 264 258 263 258 264 259 261 265 268 268 270 273 268 271 279 279 276 264 254 252 254 254 256 252 203 228 223 225 230 234 236 236 236 236 238 242 239 238
287 288 278 274 267 255 255 253 262 260 257 263 269 278 271 269 270 267 270 278 279 277 270 270 263 253 261 262 254 229 237 220 225 228 230 234 235 235 236 239 241 239 238
271 266 269 262 256 250 252 251 263 269 266 265 274 274 277 281 278 275 271 272 278 282 278 273 271 266 265 266 256 256 256 228 222 226 228 231 233 235 236 238 239 235 232
272 271 273 269 264 255 249 255 263 266 271 274 278 283 286 288 291 284 278 274 274 277 284 290 284 280 284 277 254 263 260 233 223 221 226 229 230 230 231 232 232 231 229
272 266 264 265 264 260 257 254 263 266 269 273 273 272 278 286 289 289 286 282 277 276 279 285 288 283 276 277 280 270 262 252 235 210 217 223 226 229 229 229 228 230 230
274 272 268 265 264 260 258 256 254 260 267 269 271 272 276 277 276 281 285 285 285 283 278 287 295 289 275 269 273 274 269 255 254 210 207 219 224 226 228 230 229 230 230
287 280 273 268 264 263 262 260 256 261 268 273 276 276 277 278 278 285 285 285 283 281 280 282 288 293 284 277 275 274 274 264 260 222 207 213 217 221 225 227 229 229 228
291 284 275 274 273 276 279 277 274 276 279 283 283 280 280 285 290 293 288 286 285 285 283 282 285 290 293 293 288 289 288 271 268 263 245 228 207 211 221 222 224 225 225
298 292 278 276 274 273 295 311 288 283 290 290 287 285 286 294 308 297 298 300 294 286 288 285 286 294 303 310 303 301 295 293 288 281 275 261 229 228 218 217 218 219 221
302 299 290 283 278 301 30 343 293 291 287 280 282 286 281 269 291 275 278 285 291 290 299 301 295 299 300 303 304 299 302 298 299 301 291 286 273 263 256 246 203 205 214
297 296 295 292 292 327 359 278 270 275 280 285 280 290 302 317 290 300 285 254 264 268 268 289 301 301 301 308 305 296 294 294 297 296 286 283 283 281 269 243 167 196 213
299 293 294 295 290 306 327 281 283 266 279 283 285 293 298 304 325 317 307 308 307 314 295 280 300 301 300 304 293 284 283 278 280 270 264 269 270 272 279 270 179 197 207
301 295 294 292 291 302 22 278 280 270 271 294 299 305 303 311 359 322 298 304 309 317 293 266 284 288 294 286 285 286 282 281 284 282 277 276 277 282 279 268 218 202 210
290 290 295 285 290 291 173 251 281 277 299 302 298 292 42 345 352 322 299 302 308 317 319 307 270 253 255 243 231 256 285 290 294 290 291 282 283 283 274 256 239 212 213